Satellite: INMARSAT 3-F1
Catalog number: 23839
Epoch time:      103021.67567715
Element set:     853 
Inclination:        0.0495 deg
RA of node:        13.5833 deg
Eccentricity:    0.0006325
Arg of perigee:   302.9467 deg
Mean anomaly:     111.2312 deg
Mean motion:    1.00274917 rev/day
Decay rate:    2.0999E-007 rev/day^2
Epoch rev:            2493
Checksum:              289

Satellite: ASTRA 1F
Catalog number: 23842
Epoch time:      103013.00000000
Element set:     556 
Inclination:        0.0122 deg
RA of node:       319.8851 deg
Eccentricity:    0.0002995
Arg of perigee:    65.1991 deg
Mean anomaly:     106.1837 deg
Mean motion:    1.00273184 rev/day
Decay rate:    1.3899E-006 rev/day^2
Epoch rev:            2475
Checksum:              254

Satellite: JAS 2
Catalog number: 24278
Epoch time:      103021.95559880
Element set:     568 
Inclination:       98.5286 deg
RA of node:       176.9273 deg
Eccentricity:    0.0350217
Arg of perigee:   288.1906 deg
Mean anomaly:      68.1405 deg
Mean motion:   13.52869973 rev/day
Decay rate:    2.2999E-007 rev/day^2
Epoch rev:           31757
Checksum:              369

Satellite: UNAMSAT
Catalog number: 24305
Epoch time:      103021.80489556
Element set:     659 
Inclination:       82.9356 deg
RA of node:       283.3172 deg
Eccentricity:    0.0028662
Arg of perigee:   282.1614 deg
Mean anomaly:      77.6328 deg
Mean motion:   13.73447883 rev/day
Decay rate:    2.0499E-006 rev/day^2
Epoch rev:           31967
Checksum:              337

Satellite: INMARSAT 3-F2
Catalog number: 24307
Epoch time:      103017.17607640
Element set:     72 
Inclination:        0.0559 deg
RA of node:        16.1481 deg
Eccentricity:    0.0005610
Arg of perigee:   281.6129 deg
Mean anomaly:     226.2895 deg
Mean motion:    1.00271515 rev/day
Decay rate:   -1.0700E-006 rev/day^2
Epoch rev:            2329
Checksum:              251

Satellite: HOT BIRD 2
Catalog number: 24665
Epoch time:      103013.80550721
Element set:     339 
Inclination:        0.0284 deg
RA of node:       278.7326 deg
Eccentricity:    0.0008090
Arg of perigee:    44.5257 deg
Mean anomaly:      92.5403 deg
Mean motion:    1.00273403 rev/day
Decay rate:    1.0700E-006 rev/day^2
Epoch rev:            2290
Checksum:              247

Satellite: INMARSAT 3-F3
Catalog number: 24674
Epoch time:      103021.67406111
Element set:     973 
Inclination:        0.0505 deg
RA of node:       312.8122 deg
Eccentricity:    0.0004673
Arg of perigee:   349.3471 deg
Mean anomaly:     239.1921 deg
Mean motion:    1.00271447 rev/day
Decay rate:    4.4999E-007 rev/day^2
Epoch rev:            2230
Checksum:              272

Satellite: GOES 10
Catalog number: 24786
Epoch time:      103022.22568604
Element set:     514 
Inclination:        0.0721 deg
RA of node:       109.8473 deg
Eccentricity:    0.0003244
Arg of perigee:   211.1164 deg
Mean anomaly:     106.5184 deg
Mean motion:    1.00282855 rev/day
Decay rate:    9.0999E-007 rev/day^2
Epoch rev:            2106
Checksum:              266

Satellite: INMARSAT 3-F4
Catalog number: 24819
Epoch time:      103017.04658566
Element set:     866 
Inclination:        0.0607 deg
RA of node:       298.2415 deg
Eccentricity:    0.0003813
Arg of perigee:   357.5140 deg
Mean anomaly:     143.0893 deg
Mean motion:    1.00273348 rev/day
Decay rate:   -2.6899E-006 rev/day^2
Epoch rev:            2068
Checksum:              310

Satellite: FENGYUN 2A
Catalog number: 24834
Epoch time:      103008.98957809
Element set:     942 
Inclination:        2.4721 deg
RA of node:        88.7751 deg
Eccentricity:    0.0002867
Arg of perigee:   256.9049 deg
Mean anomaly:     204.9633 deg
Mean motion:    1.00265824 rev/day
Decay rate:   -1.8800E-006 rev/day^2
Epoch rev:            2043
Checksum:              311

Satellite: HOT BIRD 3
Catalog number: 24931
Epoch time:      103013.80550721
Element set:     420 
Inclination:        0.0673 deg
RA of node:       233.2523 deg
Eccentricity:    0.0010443
Arg of perigee:   100.7649 deg
Mean anomaly:      81.7511 deg
Mean motion:    1.00274844 rev/day
Decay rate:    1.0700E-006 rev/day^2
Epoch rev:            1972
Checksum:              232

Satellite: METEOSAT 7
Catalog number: 24932
Epoch time:      103021.91607640
Element set:     233 
Inclination:        0.1500 deg
RA of node:        49.4272 deg
Eccentricity:    0.0001317
Arg of perigee:   233.0585 deg
Mean anomaly:     168.1386 deg
Mean motion:    1.00274676 rev/day
Decay rate:    9.9999E-009 rev/day^2
Epoch rev:            1974
Checksum:              296

Satellite: ASTRA 1G
Catalog number: 25071
Epoch time:      103013.00000000
Element set:     387 
Inclination:        0.0122 deg
RA of node:       319.8851 deg
Eccentricity:    0.0002995
Arg of perigee:    65.1991 deg
Mean anomaly:     106.1633 deg
Mean motion:    1.00273184 rev/day
Decay rate:    1.3899E-006 rev/day^2
Epoch rev:            1877
Checksum:              251

Satellite: INMARSAT 3-F5
Catalog number: 25153
Epoch time:      103017.80005209
Element set:     834 
Inclination:        0.4471 deg
RA of node:       357.2459 deg
Eccentricity:    0.0004040
Arg of perigee:   312.9877 deg
Mean anomaly:     119.6121 deg
Mean motion:    1.00277306 rev/day
Decay rate:    1.5599E-006 rev/day^2
Epoch rev:            1818
Checksum:              280

Satellite: HOT BIRD 4
Catalog number: 25237
Epoch time:      103013.80550721
Element set:     325 
Inclination:        0.0242 deg
RA of node:       116.4838 deg
Eccentricity:    0.0007929
Arg of perigee:   193.6371 deg
Mean anomaly:     105.7449 deg
Mean motion:    1.00276095 rev/day
Decay rate:    1.0700E-006 rev/day^2
Epoch rev:            1818
Checksum:              265

Satellite: NOAA 15
Catalog number: 25338
Epoch time:      103021.98890094
Element set:     984 
Inclination:       98.5505 deg
RA of node:        44.8859 deg
Eccentricity:    0.0011245
Arg of perigee:    40.4915 deg
Mean anomaly:     319.7105 deg
Mean motion:   14.24232549 rev/day
Decay rate:    2.9600E-006 rev/day^2
Epoch rev:           24387
Checksum:              324

Satellite: RESURS O1-N4
Catalog number: 25394
Epoch time:      103022.23029399
Element set:     429 
Inclination:       98.6369 deg
RA of node:       100.6595 deg
Eccentricity:    0.0001485
Arg of perigee:   156.8468 deg
Mean anomaly:     203.2778 deg
Mean motion:   14.23867871 rev/day
Decay rate:    2.2399E-006 rev/day^2
Epoch rev:           23564
Checksum:              347

Satellite: TMSAT
Catalog number: 25396
Epoch time:      103022.19348939
Element set:     816 
Inclination:       98.6326 deg
RA of node:        99.8347 deg
Eccentricity:    0.0002935
Arg of perigee:   185.1779 deg
Mean anomaly:     174.9386 deg
Mean motion:   14.23501335 rev/day
Decay rate:   -4.3000E-007 rev/day^2
Epoch rev:           23563
Checksum:              332

Satellite: TECHSAT 1B
Catalog number: 25397
Epoch time:      103021.92342065
Element set:     116 
Inclination:       98.6275 deg
RA of node:        98.4820 deg
Eccentricity:    0.0000569
Arg of perigee:   194.8237 deg
Mean anomaly:     165.2924 deg
Mean motion:   14.22953236 rev/day
Decay rate:    8.8000E-007 rev/day^2
Epoch rev:           23556
Checksum:              430

Satellite: ASTRA 2A
Catalog number: 25462
Epoch time:      103013.00000000
Element set:     528 
Inclination:        0.0385 deg
RA of node:       308.7109 deg
Eccentricity:    0.0004824
Arg of perigee:   280.8620 deg
Mean anomaly:     270.7162 deg
Mean motion:    1.00272094 rev/day
Decay rate:    1.6899E-006 rev/day^2
Epoch rev:            1607
Checksum:              243

Satellite: EUTELSAT W2
Catalog number: 25491
Epoch time:      103021.90494214
Element set:     567 
Inclination:        0.0253 deg
RA of node:       110.4686 deg
Eccentricity:    0.0004017
Arg of perigee:   188.1880 deg
Mean anomaly:     163.9339 deg
Mean motion:    1.00272077 rev/day
Decay rate:    1.0799E-006 rev/day^2
Epoch rev:            1577
Checksum:              284

Satellite: HOT BIRD 5
Catalog number: 25495
Epoch time:      103020.80132942
Element set:     493 
Inclination:        0.0214 deg
RA of node:       137.7841 deg
Eccentricity:    0.0003502
Arg of perigee:   169.4083 deg
Mean anomaly:     134.1615 deg
Mean motion:    1.00273979 rev/day
Decay rate:    1.6200E-006 rev/day^2
Epoch rev:            1573
Checksum:              365

Satellite: SEDSAT 1
Catalog number: 25509
Epoch time:      103021.18758421
Element set:     761 
Inclination:       31.4317 deg
RA of node:       313.4374 deg
Eccentricity:    0.0357471
Arg of perigee:    55.0350 deg
Mean anomaly:     308.3251 deg
Mean motion:   14.27388138 rev/day
Decay rate:    1.3959E-005 rev/day^2
Epoch rev:           22125
Checksum:              285

Satellite: PAN SAT
Catalog number: 25520
Epoch time:      103021.27649844
Element set:     636 
Inclination:       28.4573 deg
RA of node:        52.2544 deg
Eccentricity:    0.0006234
Arg of perigee:    47.2734 deg
Mean anomaly:     312.8369 deg
Mean motion:   15.13737265 rev/day
Decay rate:    3.3789E-005 rev/day^2
Epoch rev:           23329
Checksum:              414

Satellite: ISS (ZARYA)
Catalog number: 25544
Epoch time:      103022.48882753
Element set:     611 
Inclination:       51.6370 deg
RA of node:        32.1197 deg
Eccentricity:    0.0005728
Arg of perigee:    65.0173 deg
Mean anomaly:      67.1711 deg
Mean motion:   15.59542344 rev/day
Decay rate:    2.6915E-004 rev/day^2
Epoch rev:           23827
Checksum:              399

